Regional Weather Roundup
Issued by NWS Albany, NY

Home | Current Version | Previous Version | Graphics & Text | Print | Product List | Glossary On
Versions: 1 2 3 4 5 6 7 8 9 10 11 12 13 14 15 16 17 18 19 20 21 22 23 24 25 26 27 28 29 30 31 32 33 34 35 36 37 38 39 40 41 42 43 44 45 46 47 48 49 50
000
ASUS41 KALY 111710
RWRALY

NEW YORK STATE HOURLY WEATHER ROUNDUP
NATIONAL WEATHER SERVICE ALBANY NY
100 PM EDT FRI JUL 11 2014

NOTE: "FAIR" INDICATES FEW OR NO CLOUDS BELOW 12,000 FEET WITH NO
SIGNIFICANT WEATHER AND/OR NO OBSTRUCTIONS TO VISIBILITY.

NYZ032-033-038>043-046>054-057>066-NYZ062>081-111800-
EAST


CITY           SKY/WX    TMP DP  RH WIND       PRES   REMARKS
ALBANY         MOSUNNY   76  50  40 VRB5      30.23F
GLENS FALLS    MOSUNNY   75  52  44 VRB6      30.22F
POUGHKEEPSIE   SUNNY     80  54  40 NE8       30.20F
NEWBURGH       SUNNY     77  55  47 VRB6      30.24F
MONTGOMERY     SUNNY     81  56  42 VRB3      30.22F
WHITE PLAINS   MOSUNNY   79  58  48 SE8       30.20F
ISLIP          MOSUNNY   85  59  41 N9G16     30.17F
NEW YORK CITY  MOSUNNY   82  52  35 NE12      30.19F
CENTRAL PARK   SUNNY     83  55  38 VRB6      30.22F
$$

NYZ005>009-017-018-044>046-055-056-111800-
CENTRAL


CITY           SKY/WX    TMP DP  RH WIND       PRES   REMARKS
FULTON         SUNNY     75  55  49 W6        30.26R
SYRACUSE       MOSUNNY   77  50  38 W3        30.25S
ROME           SUNNY     75  53  46 VRB6      30.24F
ELMIRA         SUNNY     76  55  48 VRB3      30.25S
BINGHAMTON     SUNNY     74  52  46 W7        30.27F
$$

NYZ026>034-041>043-111800-
NORTH


CITY           SKY/WX    TMP DP  RH WIND       PRES   REMARKS
WATERTOWN      SUNNY     75  52  44 W8        30.24F
FORT DRUM      NOT AVBL
MASSENA        MOSUNNY   74  53  48 CALM      30.24S
SARANAC LAKE   MOSUNNY   70  45  40 CALM      30.25F
PLATTSBURGH    SUNNY     74  53  48 SE7       30.23F
$$

NYZ001>004-010>016-019>021-111800-
WEST


CITY           SKY/WX    TMP DP  RH WIND       PRES   REMARKS
NIAGARA FALLS  MOSUNNY   76  54  46 VRB5      30.23F
BUFFALO        MOSUNNY   77  55  46 CALM      30.24S
DUNKIRK        SUNNY     75  58  55 NW10      30.24S
JAMESTOWN      MOSUNNY   73  55  53 NW3       30.27S
WELLSVILLE     PTSUNNY   74  56  53 CALM      30.29S
ROCHESTER      MOSUNNY   77  51  40 CALM      30.25S
PENN YAN       SUNNY     75  54  47 SE7       30.26F
$$

             KEY
       WCI = WIND CHILL INDEX
       VSB = VISIBILITY
       HX  = HEAT INDEX
$$



USA.gov is the U.S. government's official web portal to all federal, state and local government web resources and services.